Location: Eastlake (historical)
(39.0077°N, 122.6678°W)
Time: 05:09:00
(UTC+00:00)

Lacrosse 4 Rocket - Pass Details

Date: 25 November 2020
Orbit: 537 x 621 km, 68.0° (Epoch: 27 January)

Event Time Altitude Azimuth Distance (km) Brightness Sun altitude
Exits shadow 14:31:42 - 321° (NW) 2,359 4.0 -6.8°
Reaches altitude 10° 14:32:51 10° 317° (NW) 1,926 3.5 -6.6°
Maximum altitude 14:36:51 38° 249° (WSW) 922 2.1 -5.8°
Drops below altitude 10° 14:40:56 10° 181° (S) 1,955 4.4 -5.1°
Sets 14:43:19 0° 174° (S) 2,864 5.4 -4.7°
